Погода в Орле

Россия / Республика Татарстан     55°33′57″N   49°04′04″E
темп.,
°C
ветер,
м/с
пор.,
м/с
влажн.,
%
обл.,
%
осадки,
мм/ч
давл.,
гПа
погр.,
м
19 апреля, пн
пн1900:00+4всв6125796 0.0 1025505
03:00+2всв71362100 0.0 1026497
06:00+1всв71361100 0.0 1027585
09:00+4в91246100 0.0 1028931
12:00+6в91140100 0.0 10281375
15:00+7в91138100 0.0 10281607
18:00+6в71240100 0.0 1028871
21:00+3всв7154247 0.0 1029515
20 апреля, вт
вт2000:00+1в714485 0.0 1030423
03:000в613575 0.0 1031328
06:000в612600 0.0 1031381
09:00+5вюв810390 0.0 1032942
12:00+7вюв79300 0.0 10311301
15:00+9вюв79270 0.0 10291533
18:00+7вюв6123853 0.0 1027486
21:00+4вюв61446100 0.0 1027379
21 апреля, ср
ср2100:00+3вюв716495 0.0 1026481
03:00+2юв81753100 0.0 1025613
06:00+3юв91852100 0.0 1023689
09:00+4юв81654100 0.3 1022806
12:00+2юв101976100 0.8 1022827
15:00+2ююв91890100 2.3 1022843
18:00+1ююв81895100 1.7 1022678
21:00+2ююв71596100 2.6 1022612
22 апреля, чт
чт2200:00+2ю61395100 0.1 1023512
03:00+3ююв61196100 0.1 1023449
06:00+3ю51097100 0.0 1023409
09:00+5ю5993100 0.0 1024455
12:00+5ююв5894100 0.3 1024417
15:00+5ююв5994100 0.4 1024470
18:00+6ю4893100 0.0 1026495
21:00+6ю3897100 0.0 1026277
23 апреля, пт
пт2300:00+5ююв379530 0.0 1025192
03:00+3ююв349567 0.0 102664
06:00+4юв3694100 0.0 1026197
09:00+8ююв4576100 0.0 1026451
12:00+11юв4466100 0.0 1025831
15:00+10юв4468100 0.0 1024791
18:00+8юв5679100 0.0 1024677
21:00+7вюв3583100 0.0 1023469